When you browse on this site, cookies collect data to enhance your experience and personalize the content and advertising you see.
Visit our Privacy Policy to learn more. By continuing to use the site, you agree to this use of cookies and data.
  • In Hungary
  • List of Countries
  • For 7 days
  • Water Temperature
  • Weather Map
  • News
  • Weather Widgets
  • user-avatar
    Login

    Hourly Weather Pietrusy

    Today, 23 September, Monday

    Time Temperature Precipitation Wind Pressure Humidity
    00:00 +12°C° 0 mm 2 mps 747 mmHg 83%
    01:00 +12°C° 0 mm 2 mps 747 mmHg 88%
    02:00 +10°C° 0 mm 3 mps 748 mmHg 93%
    03:00 +10°C° 0 mm 4 mps 748 mmHg 92%
    04:00 +8°C° 0 mm 4 mps 748 mmHg 91%
    05:00 +8°C° 0 mm 5 mps 748 mmHg 90%
    06:00 +8°C° 0 mm 5 mps 748 mmHg 86%
    07:00 +8°C° 0 mm 5 mps 748 mmHg 82%
    08:00 +8°C° 0 mm 5 mps 749 mmHg 78%
    09:00 +9°C° 0 mm 5 mps 749 mmHg 74%
    10:00 +10°C° 0 mm 5 mps 749 mmHg 71%
    11:00 +12°C° 0 mm 5 mps 749 mmHg 68%
    12:00 +12°C° 0 mm 5 mps 749 mmHg 65%
    13:00 +13°C° 0 mm 5 mps 749 mmHg 63%
    14:00 +13°C° 0 mm 5 mps 749 mmHg 61%
    15:00 +13°C° 0 mm 5 mps 749 mmHg 61%
    16:00 +13°C° 0 mm 4 mps 749 mmHg 61%
    17:00 +13°C° 0 mm 4 mps 748 mmHg 61%
    18:00 +12°C° 0 mm 4 mps 749 mmHg 65%
    19:00 +10°C° 0 mm 4 mps 749 mmHg 69%
    20:00 +9°C° 0 mm 3 mps 749 mmHg 73%
    21:00 +8°C° 0 mm 3 mps 749 mmHg 73%
    22:00 +7°C° 0 mm 3 mps 750 mmHg 72%
    23:00 +7°C° 0 mm 3 mps 750 mmHg 71%

    Tomorrow, 24 September, Tuesday

    Time Temperature Precipitation Wind Pressure Humidity
    00:00 +5°C° 0 mm 3 mps 750 mmHg 72%
    01:00 +5°C° 0 mm 3 mps 750 mmHg 72%
    02:00 +4°C° 0 mm 3 mps 750 mmHg 72%
    03:00 +4°C° 0 mm 3 mps 749 mmHg 73%
    04:00 +4°C° 0 mm 3 mps 749 mmHg 74%
    05:00 +3°C° 0 mm 3 mps 749 mmHg 74%
    06:00 +4°C° 0 mm 3 mps 749 mmHg 72%
    07:00 +5°C° 0 mm 3 mps 749 mmHg 69%
    08:00 +5°C° 0 mm 4 mps 749 mmHg 66%
    09:00 +7°C° 0 mm 4 mps 749 mmHg 62%
    10:00 +10°C° 0 mm 3 mps 749 mmHg 58%
    11:00 +13°C° 0 mm 3 mps 749 mmHg 54%
    12:00 +14°C° 0 mm 3 mps 748 mmHg 52%
    13:00 +16°C° 0 mm 3 mps 748 mmHg 50%
    14:00 +17°C° 0 mm 3 mps 748 mmHg 49%
    15:00 +17°C° 0 mm 2 mps 747 mmHg 50%
    16:00 +16°C° 0 mm 2 mps 747 mmHg 51%
    17:00 +16°C° 0 mm 2 mps 747 mmHg 52%
    18:00 +14°C° 0 mm 2 mps 747 mmHg 58%
    19:00 +13°C° 0 mm 2 mps 747 mmHg 64%
    20:00 +10°C° 0 mm 3 mps 747 mmHg 69%
    21:00 +9°C° 0 mm 3 mps 747 mmHg 72%
    22:00 +9°C° 0 mm 3 mps 746 mmHg 75%
    23:00 +8°C° 0 mm 3 mps 746 mmHg 78%

    Day after tomorrow, 25 September, Wednesday

    Time Temperature Precipitation Wind Pressure Humidity
    00:00 +8°C° 0 mm 3 mps 746 mmHg 79%
    01:00 +8°C° 0 mm 3 mps 746 mmHg 80%
    02:00 +7°C° 0 mm 3 mps 746 mmHg 81%
    03:00 +7°C° 0 mm 3 mps 746 mmHg 81%
    04:00 +7°C° 0 mm 3 mps 745 mmHg 80%
    05:00 +7°C° 0 mm 3 mps 745 mmHg 79%
    06:00 +8°C° 0 mm 3 mps 745 mmHg 77%
    07:00 +8°C° 0 mm 3 mps 745 mmHg 74%
    08:00 +9°C° 0 mm 3 mps 744 mmHg 72%
    09:00 +11°C° 0 mm 4 mps 744 mmHg 68%
    10:00 +12°C° 0 mm 4 mps 744 mmHg 64%
    11:00 +14°C° 0 mm 4 mps 744 mmHg 60%
    12:00 +15°C° 0 mm 4 mps 744 mmHg 58%
    13:00 +18°C° 0 mm 4 mps 743 mmHg 55%
    14:00 +19°C° 0 mm 4 mps 743 mmHg 53%
    15:00 +19°C° 0 mm 4 mps 743 mmHg 56%
    16:00 +18°C° 0 mm 3 mps 742 mmHg 58%
    17:00 +18°C° 0 mm 3 mps 742 mmHg 61%
    18:00 +17°C° 0 mm 3 mps 742 mmHg 65%
    19:00 +16°C° 0 mm 3 mps 742 mmHg 69%
    20:00 +14°C° 0 mm 3 mps 742 mmHg 73%
    21:00 +15°C° 0.1 mm 2 mps 742 mmHg 76%
    22:00 +15°C° 0.1 mm 2 mps 742 mmHg 79%
    23:00 +14°C° 0.1 mm 2 mps 742 mmHg 83%

    26 September, Thursday

    Time Temperature Precipitation Wind Pressure Humidity
    00:00 +14°C° 0.3 mm 2 mps 742 mmHg 86%
    01:00 +14°C° 0.3 mm 2 mps 742 mmHg 89%
    02:00 +14°C° 0.3 mm 2 mps 742 mmHg 92%
    03:00 +14°C° 0.2 mm 2 mps 742 mmHg 93%
    04:00 +12°C° 0.2 mm 3 mps 742 mmHg 94%
    05:00 +12°C° 0.2 mm 3 mps 742 mmHg 95%
    06:00 +12°C° 0.1 mm 3 mps 742 mmHg 93%
    07:00 +12°C° 0.1 mm 3 mps 742 mmHg 92%
    08:00 +13°C° 0.1 mm 4 mps 742 mmHg 90%
    09:00 +13°C° 0 mm 4 mps 742 mmHg 88%
    10:00 +14°C° 0 mm 4 mps 743 mmHg 85%
    11:00 +15°C° 0 mm 4 mps 743 mmHg 83%
    12:00 +14°C° 0 mm 4 mps 743 mmHg 83%
    13:00 +14°C° 0 mm 4 mps 743 mmHg 83%
    14:00 +14°C° 0 mm 4 mps 743 mmHg 84%
    15:00 +16°C° 0.2 mm 3 mps 743 mmHg 82%
    16:00 +16°C° 0.2 mm 3 mps 744 mmHg 81%
    17:00 +16°C° 0.2 mm 3 mps 744 mmHg 80%
    18:00 +14°C° 0.1 mm 3 mps 744 mmHg 84%
    19:00 +14°C° 0.1 mm 2 mps 744 mmHg 89%
    20:00 +13°C° 0.1 mm 2 mps 745 mmHg 94%
    21:00 +12°C° 0 mm 2 mps 745 mmHg 94%
    22:00 +12°C° 0 mm 1 mps 745 mmHg 95%
    23:00 +11°C° 0 mm 1 mps 745 mmHg 95%

    27 September, Friday

    Time Temperature Precipitation Wind Pressure Humidity
    00:00 +11°C° 0 mm 1 mps 746 mmHg 95%
    01:00 +11°C° 0 mm 1 mps 746 mmHg 96%
    02:00 +10°C° 0 mm 1 mps 746 mmHg 96%
    03:00 +10°C° 0 mm 1 mps 746 mmHg 96%
    04:00 +10°C° 0 mm 1 mps 746 mmHg 96%
    05:00 +10°C° 0 mm 1 mps 746 mmHg 96%
    06:00 +11°C° 0 mm 1 mps 746 mmHg 95%
    07:00 +11°C° 0 mm 1 mps 746 mmHg 93%
    08:00 +11°C° 0 mm 0 mps 747 mmHg 92%
    09:00 +13°C° 0 mm 1 mps 747 mmHg 88%
    10:00 +14°C° 0 mm 1 mps 747 mmHg 83%
    11:00 +15°C° 0 mm 1 mps 747 mmHg 78%
    12:00 +18°C° 0 mm 1 mps 747 mmHg 72%
    13:00 +19°C° 0 mm 1 mps 747 mmHg 66%
    14:00 +19°C° 0 mm 2 mps 747 mmHg 61%
    15:00 +19°C° 0 mm 2 mps 747 mmHg 62%
    16:00 +19°C° 0 mm 2 mps 747 mmHg 63%
    17:00 +19°C° 0 mm 2 mps 746 mmHg 64%
    18:00 +18°C° 0 mm 2 mps 746 mmHg 68%
    19:00 +17°C° 0 mm 2 mps 747 mmHg 73%
    20:00 +16°C° 0 mm 2 mps 747 mmHg 77%
    21:00 +15°C° 0 mm 2 mps 747 mmHg 78%
    22:00 +14°C° 0 mm 3 mps 747 mmHg 79%
    23:00 +14°C° 0 mm 3 mps 747 mmHg 80%

    28 September, Saturday

    Time Temperature Precipitation Wind Pressure Humidity
    00:00 +14°C° 0.1 mm 3 mps 747 mmHg 81%
    01:00 +13°C° 0.1 mm 3 mps 746 mmHg 82%
    02:00 +13°C° 0.1 mm 3 mps 746 mmHg 84%
    03:00 +13°C° 0 mm 3 mps 746 mmHg 85%
    04:00 +13°C° 0 mm 4 mps 746 mmHg 86%
    05:00 +13°C° 0 mm 4 mps 745 mmHg 87%
    06:00 +14°C° 0.1 mm 4 mps 745 mmHg 85%
    07:00 +14°C° 0.1 mm 5 mps 745 mmHg 83%
    08:00 +15°C° 0.1 mm 5 mps 745 mmHg 82%
    09:00 +16°C° 0 mm 5 mps 745 mmHg 77%
    10:00 +18°C° 0 mm 4 mps 745 mmHg 72%
    11:00 +20°C° 0 mm 4 mps 745 mmHg 67%
    12:00 +19°C° 0.1 mm 3 mps 745 mmHg 68%
    13:00 +19°C° 0.1 mm 3 mps 745 mmHg 70%
    14:00 +19°C° 0.1 mm 3 mps 745 mmHg 72%
    15:00 +18°C° 1.3 mm 3 mps 744 mmHg 78%
    16:00 +17°C° 1.3 mm 3 mps 744 mmHg 85%
    17:00 +15°C° 1.3 mm 4 mps 744 mmHg 91%
    18:00 +15°C° 0.1 mm 4 mps 744 mmHg 92%
    19:00 +14°C° 0.1 mm 4 mps 744 mmHg 92%
    20:00 +14°C° 0.1 mm 4 mps 744 mmHg 93%
    21:00 +14°C° 0 mm 4 mps 744 mmHg 93%
    22:00 +13°C° 0 mm 4 mps 743 mmHg 92%
    23:00 +13°C° 0 mm 4 mps 743 mmHg 92%
    Show more